Probability
1 1 0 0 0 0 0 0 0 0 0 0 1 1 1 0 1 2 4 5 6 7 7 6 5 4 4 4 2 2 3 2 1 2 2 1 0 0 2 5 6 5 5
1 0 0 0 0 0 0 0 0 0 0 0 0 1 1 0 0 1 3 5 6 7 7 5 4 4 4 4 4 5 5 3 1 2 2 1 1 1 2 4 5 4 3
0 0 0 0 0 0 0 0 0 0 0 0 0 0 0 0 0 0 1 3 5 6 5 4 3 4 5 6 6 6 6 3 1 1 1 1 1 2 2 2 3 2 2
0 0 0 0 0 0 0 0 0 0 0 0 0 0 0 0 0 0 0 1 4 5 4 3 3 4 6 7 6 5 4 2 0 0 0 0 1 1 1 1 1 1 2
1 0 0 0 0 0 0 0 0 0 0 0 0 0 0 0 0 0 0 1 3 5 5 4 4 4 5 5 4 3 2 1 0 0 0 1 1 0 0 0 0 1 2
3 2 2 2 1 1 0 0 0 0 0 0 0 0 0 0 0 0 0 0 1 3 4 3 3 3 3 4 4 4 2 1 0 0 1 1 1 0 0 0 0 0 1
5 5 5 5 4 3 1 0 0 0 0 0 0 0 0 0 0 0 0 0 0 1 2 2 2 1 2 4 5 4 3 1 0 0 1 1 1 0 0 0 0 0 0
6 6 6 6 6 5 2 0 0 0 0 0 0 0 0 0 0 0 0 0 0 0 1 2 2 1 0 2 3 3 3 2 1 1 1 0 0 0 0 0 0 0 0
6 6 6 6 6 5 2 0 0 0 0 0 0 0 0 0 0 0 0 0 0 0 0 1 1 1 0 1 1 1 2 3 3 2 1 1 1 0 0 0 0 0 0
6 6 6 6 6 4 1 0 0 0 0 0 0 0 0 0 0 0 0 0 0 0 0 0 0 0 0 1 1 0 1 2 2 2 2 2 2 1 0 0 0 0 0
4 4 5 6 5 3 1 0 0 0 0 0 0 0 0 0 0 0 0 0 0 0 0 0 0 0 0 0 0 0 0 1 1 1 2 3 3 2 1 0 0 0 0
3 3 4 5 4 2 1 0 0 0 0 0 0 0 0 0 0 0 0 0 0 0 0 0 0 0 0 0 0 0 0 0 0 0 1 1 2 3 2 1 0 0 0
3 3 3 3 2 2 2 1 1 0 0 0 0 0 0 0 0 0 0 0 0 0 0 0 0 0 0 0 0 0 0 0 0 0 0 0 1 2 2 1 0 0 0
2 2 1 1 1 1 2 2 2 1 1 0 0 0 0 0 0 0 0 0 0 0 0 0 0 0 0 0 0 0 0 0 0 0 0 0 0 1 1 1 0 0 0
1 1 0 0 0 0 1 2 3 3 2 1 1 1 0 0 0 0 0 0 0 0 0 0 0 0 0 0 0 0 0 0 0 0 0 0 0 0 0 0 0 0 0
0 0 0 0 0 0 0 1 2 3 3 3 2 1 0 0 0 0 0 0 0 0 0 0 0 0 0 0 0 0 0 0 0 0 0 0 0 0 0 0 0 0 0
0 0 0 0 0 0 0 1 2 3 3 3 2 1 0 0 0 0 0 0 0 0 0 0 0 0 0 0 0 0 0 0 0 0 0 0 0 0 0 0 0 0 0
0 0 0 0 0 0 1 2 3 3 3 3 2 1 0 0 0 0 0 0 0 0 0 0 0 0 0 0 1 1 1 0 0 0 0 0 0 0 0 0 0 0 0
0 0 0 0 0 0 1 2 3 3 3 3 3 1 0 0 0 0 0 0 0 0 0 0 0 0 0 0 1 1 1 0 0 0 0 0 0 0 0 0 0 0 0
0 0 0 0 0 0 0 1 3 3 3 3 3 2 0 0 0 0 0 0 0 0 0 0 0 0 0 0 0 0 0 0 0 0 0 0 0 0 0 0 0 0 0
0 0 0 0 0 0 0 1 2 3 3 3 2 1 0 0 0 0 0 0 0 0 0 0 0 0 0 0 0 0 0 0 0 0 0 0 0 0 0 0 0 0 0
0 0 0 0 0 0 0 1 2 3 3 2 1 0 0 0 0 0 0 0 0 0 0 0 0 0 0 0 0 0 0 0 0 0 0 0 0 0 0 0 0 0 0
0 0 0 0 0 0 0 0 1 2 2 1 0 0 0 0 0 0 0 0 0 0 0 0 0 0 0 0 0 0 0 0 0 0 0 0 0 0 0 0 0 0 0
0 0 1 1 0 0 0 0 0 1 1 0 0 0 0 0 0 0 0 0 0 0 0 0 0 0 0 0 0 0 0 0 0 0 0 0 0 0 0 0 0 0 0
1 1 2 2 1 1 0 0 0 0 0 0 0 0 0 0 0 0 0 0 0 0 0 0 0 0 0 0 0 0 0 0 0 0 0 0 0 0 0 0 0 0 0
2 2 3 3 2 2 1 0 0 0 0 0 0 0 0 0 0 0 0 0 0 0 0 0 0 0 0 0 0 0 0 0 0 0 0 0 0 0 0 0 0 0 0
Wind_Speed
3 2 2 2 2 1 2 1 1 1 1 1 2 3 3 3 3 2 2 6 7 7 7 7 7 6 6 6 6 6 6 6 5 5 5 5 5 5 6 6 6 5 5
3 3 2 2 1 2 2 2 2 2 1 1 1 2 3 3 3 3 2 3 6 7 7 7 7 7 6 6 6 6 6 6 6 6 6 6 6 6 6 6 6 5 5
4 3 2 2 2 2 2 2 2 2 1 1 1 1 2 3 3 3 3 2 2 5 6 6 6 7 6 6 6 6 6 6 6 6 6 6 6 6 6 6 6 5 5
4 3 3 2 2 2 2 2 2 2 1 1 1 0 1 1 3 3 3 2 2 2 3 5 5 6 6 6 6 6 6 7 6 6 7 7 6 6 6 6 5 5 5
4 4 3 2 2 2 2 2 2 2 1 1 1 0 0 1 1 3 3 3 3 2 2 4 6 6 5 6 6 7 7 6 6 6 7 6 6 6 6 6 5 5 5
4 4 3 2 2 2 1 1 2 1 1 1 1 1 1 0 1 1 2 2 3 3 3 3 2 3 5 6 6 7 7 6 6 6 6 6 6 6 6 6 6 5 5
4 4 3 2 2 2 2 2 2 2 1 1 2 2 3 2 1 0 1 2 2 3 3 3 3 2 2 5 6 7 7 7 7 6 6 6 6 6 6 6 6 5 6
4 4 4 3 2 2 2 2 2 1 0 1 3 2 2 3 2 1 0 1 2 1 3 4 3 3 2 2 4 7 7 7 7 7 6 6 6 6 7 7 7 6 6
4 4 4 3 3 3 2 2 2 3 1 0 2 3 3 2 2 2 1 1 1 1 2 2 4 4 4 3 3 6 7 6 7 7 6 6 6 7 7 7 7 7 6
3 3 3 4 3 3 3 3 3 2 3 1 0 1 2 4 3 1 2 1 1 2 2 3 3 4 4 3 4 6 7 6 7 7 6 6 6 7 7 7 7 7 7
2 3 3 3 3 3 3 3 2 2 2 3 2 1 1 1 2 3 1 2 2 2 2 3 3 3 3 3 3 6 7 7 7 6 6 6 6 6 6 7 7 7 7
1 2 3 3 3 3 3 3 3 3 2 2 2 2 2 2 2 2 2 1 1 2 1 2 3 3 3 3 5 7 8 8 7 7 6 6 5 5 6 6 6 6 7
1 2 2 3 3 3 3 3 3 3 2 2 2 2 2 2 2 3 3 1 1 2 1 1 2 2 3 3 3 7 7 8 8 8 7 7 6 5 6 6 6 6 6
3 3 3 3 3 3 3 3 2 2 2 2 2 2 1 1 2 2 3 3 1 1 1 2 1 2 2 2 4 5 4 8 7 8 8 7 7 6 6 6 5 5 5
3 3 3 3 3 3 3 3 2 2 2 2 2 2 2 1 1 2 2 3 4 2 2 2 1 2 2 2 4 3 3 6 7 8 8 8 8 8 7 6 6 6 5
3 3 2 3 3 3 4 3 3 2 3 2 2 2 2 1 1 1 2 2 3 4 3 3 2 2 2 2 4 3 4 7 8 8 8 8 8 8 8 7 7 7 6
4 4 3 3 4 4 4 4 3 3 3 2 2 2 2 2 1 1 1 2 2 3 2 2 1 1 1 2 1 2 2 3 4 8 8 8 8 8 8 9 8 8 7
4 4 3 3 4 4 4 5 5 4 4 4 3 3 3 2 2 1 2 2 2 2 3 2 1 1 1 2 2 2 2 3 3 6 8 8 8 9 8 9 9 9 9
4 3 3 4 4 4 4 5 5 4 4 4 4 4 4 3 3 2 2 2 2 2 2 2 1 1 1 1 1 1 2 1 3 4 6 7 8 8 8 9 9 9 9
4 4 4 4 4 4 4 4 4 4 4 4 4 4 4 5 5 4 3 3 2 2 2 2 1 1 1 1 1 1 1 1 2 2 3 4 6 8 8 9 9 9 10
5 4 4 3 4 4 4 5 5 5 4 4 4 4 4 5 6 5 4 4 3 2 2 2 2 1 1 1 2 2 2 2 2 2 1 2 2 3 4 6 8 10 10
4 4 4 4 4 4 5 7 6 4 4 4 4 3 3 4 5 5 6 6 7 5 4 3 2 3 4 3 3 2 2 1 2 2 1 3 2 3 4 4 8 10 10
4 3 3 4 4 5 7 7 8 5 4 4 4 3 3 3 4 3 4 4 5 7 8 6 5 5 5 5 4 3 3 4 4 3 2 3 2 3 4 5 9 10 11
4 4 4 4 4 5 7 7 7 4 3 4 4 4 4 3 4 4 3 3 3 4 6 6 6 6 5 5 5 5 4 3 2 2 3 3 3 3 3 3 7 9 10
3 3 3 4 4 5 7 7 6 3 3 4 3 4 4 4 6 7 4 4 3 4 4 5 6 6 6 7 5 3 2 2 2 3 3 3 2 2 2 3 4 6 8
3 3 3 4 4 4 6 7 7 3 3 2 2 3 5 6 6 7 5 5 5 5 3 2 2 3 4 5 6 6 5 4 3 3 3 3 2 1 2 2 2 2 3
Wind_Direction
155 152 150 149 154 153 158 164 166 155 165 168 175 165 165 174 172 171 176 173 175 176 174 175 175 175 174 169 164 161 160 163 164 160 160 162 165 165 169 167 162 164 161
152 148 147 148 159 162 160 158 156 146 144 137 141 154 156 160 165 165 162 180 182 180 180 183 180 179 179 175 167 161 160 157 156 150 150 155 156 156 155 155 151 154 158
145 141 139 153 178 160 144 130 117 109 116 118 116 143 148 153 164 165 161 170 179 184 183 184 181 176 173 171 167 163 160 159 158 152 149 149 149 148 146 148 149 151 153
142 133 138 153 158 140 129 131 125 109 101 102 113 169 137 140 162 168 164 169 173 180 180 173 170 173 175 176 173 168 161 156 156 155 152 147 146 145 142 144 147 151 154
134 130 138 142 136 126 123 145 118 130 126 121 157 174 142 144 165 167 170 170 170 168 164 162 171 173 176 177 177 171 162 156 159 159 155 151 149 151 151 152 156 159 163
136 131 132 127 118 112 108 115 115 107 136 168 124 49 3 319 128 157 175 171 168 171 167 165 167 174 174 175 176 173 170 169 167 165 167 165 162 161 163 167 170 174 180
138 131 133 129 121 123 143 138 123 110 82 117 82 28 358 1 50 181 181 170 175 179 171 173 178 170 174 181 181 179 179 181 182 178 176 176 177 179 179 183 186 189 193
146 146 143 146 140 129 126 125 124 121 123 128 128 106 16 354 342 329 213 174 175 179 185 183 176 179 176 175 189 184 183 187 187 186 187 188 190 193 194 196 201 204 205
152 150 154 155 157 153 161 164 150 143 153 47 140 144 148 209 296 322 295 202 182 195 201 184 183 185 183 181 185 199 195 193 191 193 195 198 204 203 204 204 206 209 215
154 154 159 164 164 162 169 181 165 159 149 165 204 156 166 160 159 287 317 297 225 215 212 194 189 191 185 181 189 195 197 196 197 198 197 201 205 206 208 212 215 217 218
164 167 168 169 171 170 172 177 163 159 159 164 171 155 125 127 143 151 249 310 320 272 229 202 190 189 186 183 187 197 195 196 197 194 196 201 204 206 208 216 221 220 220
166 174 171 170 176 175 175 180 177 168 166 163 165 153 157 162 179 161 181 234 274 289 273 216 195 192 192 188 198 196 198 198 195 194 198 201 204 206 211 218 224 223 219
175 194 180 181 184 181 180 172 164 172 171 165 166 164 171 187 173 159 150 171 233 302 317 283 217 198 196 188 202 199 200 199 198 200 205 206 206 207 216 220 226 221 220
189 191 184 186 185 178 177 167 159 170 161 166 169 161 165 201 166 166 160 146 119 332 324 283 280 214 199 189 210 200 201 204 202 206 212 214 213 213 217 217 219 211 210
183 183 178 181 182 175 173 159 162 174 161 167 172 168 175 202 171 173 157 155 152 167 255 269 268 247 212 191 201 192 201 214 213 212 215 218 218 217 217 214 207 201 199
180 172 179 190 191 184 176 165 166 175 168 175 169 165 185 195 177 158 154 155 154 160 203 245 239 239 212 203 200 195 211 218 217 217 219 220 220 220 219 214 209 207 204
177 179 184 192 192 190 183 172 180 180 182 191 190 184 205 191 170 181 152 150 165 152 174 259 253 247 184 203 215 215 213 210 216 221 221 221 220 222 223 220 216 214 212
179 185 185 191 199 194 186 180 187 188 186 192 199 190 210 198 189 190 173 176 183 173 163 215 268 254 230 210 203 208 220 218 220 224 223 225 223 227 228 227 223 220 219
180 184 185 193 201 198 191 188 186 190 195 199 196 192 202 189 200 201 189 187 190 182 163 169 237 251 250 209 178 232 224 238 236 231 229 228 228 230 227 230 229 226 226
182 189 195 200 199 198 195 192 186 192 201 205 202 199 199 193 197 196 195 192 182 175 167 164 216 250 239 229 156 208 267 259 251 244 237 231 231 235 233 232 232 231 230
190 189 191 202 201 200 201 194 194 200 203 211 215 213 211 208 205 198 194 188 175 179 179 177 209 222 228 200 213 213 224 266 276 236 238 248 232 239 241 237 235 234 233
191 185 193 199 206 214 202 198 195 197 200 204 211 219 222 212 208 207 204 197 188 188 194 192 207 214 227 214 207 197 196 205 276 249 189 256 215 238 240 230 231 233 234
184 191 202 201 213 220 205 205 204 190 192 201 204 202 213 206 198 199 210 216 219 217 207 193 202 220 216 210 194 205 205 204 227 223 175 255 244 247 246 242 235 232 233
187 200 209 212 215 224 209 208 205 197 199 209 209 204 203 209 207 193 193 213 233 233 223 210 211 222 224 217 199 200 203 216 252 233 179 229 245 244 255 251 246 236 234
197 209 211 212 217 229 212 205 194 190 204 218 218 210 203 210 218 200 187 209 239 259 251 227 225 232 235 229 207 170 182 185 251 256 199 198 235 251 266 264 259 240 234
199 205 217 218 217 225 209 197 187 185 201 217 224 221 215 216 220 203 193 201 226 245 239 254 251 257 249 241 221 200 190 192 215 246 220 187 209 186 278 274 257 247 238